Location: Arpaise
(41.0333°N, 14.7333°E)
Time: 00:56:55
(UTC+00:00)

CARTOSAT-1 - Pass Details

Date: 05 July 2020
Orbit: 617 x 618 km, 97.8° (Epoch: 11 August)

Event Time Altitude Azimuth Distance (km) Brightness Sun altitude
Exits shadow 20:32:58 33° 155° (SSE) 1,038 4.2 -17.1°
Maximum altitude 20:34:50 75° 76° (ENE) 643 3.5 -17.3°
Drops below altitude 10° 20:39:10 10° 351° (N) 1,990 7.1 -17.8°
Sets 20:41:21 0° 350° (N) 2,900 8.2 -18.0°
